Overview Statistics Trail Chart Weather Telemetry Raw packets
 

This is the latest recevied weather packets stored in our database for station/object SQ3MKP-13. If no packets are shown the sender has not sent any weather packets the latest 10 day(s).

<< 86 87 88 89 90 91 92 >>
Time Temp. Humidity Pressure Rain* Wind** Luminosity Snow
1787966715 18.89° C 90% 1000.6 hPa 0.25 mm - - -
1787966414 18.89° C 90% 1000.6 hPa 0.25 mm - - -
1787966113 18.89° C 89% 1000.4 hPa 0.25 mm - - -
1787965812 18.89° C 88% 1000.5 hPa 0.25 mm - - -
1787965511 18.89° C 86% 1000.6 hPa 0.25 mm - - -
1787965210 19.44° C 85% 1000.7 hPa - - - -
1787964909 19.44° C 83% 1000.8 hPa - - - -
1787964608 19.44° C 80% 1000.9 hPa - - - -
1787964316 19.44° C 78% 1000.7 hPa - - - -
1787964006 18.89° C 78% 1000.6 hPa - - - -
1787963705 18.89° C 77% 1000.6 hPa - - - -
1787963404 18.89° C 77% 1000.6 hPa - - - -
1787963103 18.89° C 77% 1000.7 hPa - - - -
1787962802 18.89° C 77% 1000.6 hPa - - - -
1787962501 18.89° C 75% 1000.7 hPa - - - -
1787962200 18.89° C 76% 1000.7 hPa - - - -
1787961899 19.44° C 75% 1000.7 hPa - - - -
1787961598 19.44° C 75% 1000.7 hPa - - - -
1787961297 20° C 74% 1000.6 hPa - - - -
1787960996 20° C 74% 1000.5 hPa - - - -
1787960695 19.44° C 73% 1000.6 hPa - - - -
1787960394 18.89° C 75% 1000.5 hPa - - - -
1787960094 18.89° C 75% 1000.4 hPa - - - -
1787959792 18.89° C 75% 1000.7 hPa - - - -
1787959492 18.89° C 75% 1000.9 hPa - - - -

* Rain latest hour (hover to see other rain measurements)
** Current wind speed in m/s (hover to see current wind gust speed)